ASTRA 3B                
1 36581U 10021A   19261.15644615  .00000133  00000-0  00000+0 0  9994
2 36581   0.0282 324.8362 0003021 208.8761 262.9076  1.00269271 33942
COMSATBW-2              
1 36582U 10021B   19260.84254839  .00000084  00000-0  00000+0 0  9990
2 36582   0.0194 120.3212 0002003  65.6572 127.0225  1.00270587 34272
ARIANE 5 R/B            
1 36583U 10021C   19260.81850201  .00000224  00000-0  18889-3 0  9997
2 36583   3.2753 347.9297 7147431 254.5869  22.1446  2.43707455 80761
ARIANE 5 DEB [SYLDA]    
1 36584U 10021D   19261.38006851  .00911282 -68178-5  33804-2 0  9999
2 36584   2.8249  40.8809 2506198 161.7126 209.2239 10.59615307139914